Epoch 2009 Sept. 6.0 TT = JDT 2455080.5 T 2009 Sept. 9.09893 TT MPC q 1.6490157 (2000.0) P Q n 0.08614959 Peri. 259.90459 +0.70198663 +0.69732151 a 5.0773126 Node 55.70352 -0.56533522 +0.66922722 e 0.6752188 Incl. 10.09230 -0.43314069 +0.25666639 P 11.44
m1 = 14.0 + 5 logΔ + 10.0 log r